Location: Eindhoven
(51.4416°N, 5.4697°E)
Time: 13:44:55
(UTC+01:00)

Vanguard 2 - Visible Passes

Search period start: 20 November 2019 00:00
Search period end: 30 November 2019 00:00
Orbit: 554 x 2937 km, 32.9° (Epoch: 20 November)

Date Brightness Start Highest point End Pass type
(mag) Time Alt. Az. Time Alt. Az. Time Alt. Az.
22 Nov 11.8 06:08:52 10° S 06:12:19 11° SSE 06:15:24 10° SE visible
23 Nov 11.6 06:23:11 10° S 06:29:55 15° SSE 06:35:24 10° SE visible
24 Nov 11.4 06:38:57 10° SSW 06:47:32 19° SSE 06:54:09 10° ESE visible
25 Nov 11.8 04:50:46 10° S 04:56:13 13° SSE 05:01:02 10° SE visible
25 Nov 11.2 06:55:22 10° SSW 07:05:09 23° SSE 07:12:25 10° ESE visible
26 Nov 11.6 05:05:11 10° S 05:13:44 17° SSE 05:20:51 10° ESE visible
26 Nov 11.1 07:12:10 10° SW 07:22:47 26° S 07:30:24 10° ESE visible
27 Nov 11.4 05:20:49 10° SSW 05:31:17 21° SSE 05:39:36 10° ESE visible
27 Nov 11.0 07:29:16 10° SW 07:40:23 28° S 07:48:13 10° SE visible
28 Nov 11.8 03:33:39 10° SSE 03:39:41 13° SE 03:45:13 10° ESE visible
28 Nov 11.3 05:37:05 10° SSW 05:48:52 25° SSE 05:57:55 10° ESE visible
29 Nov 11.6 03:47:42 10° S 03:57:06 17° SSE 04:05:19 10° ESE visible
29 Nov 11.1 05:53:46 10° SW 06:06:27 29° SSE 06:15:58 10° ESE visible
